sat.trackr.live / text

‹ back to catalog

FLOCK 4BE-18

NORAD 60480 · 2024-149N

PAYLOAD ACTIVE UNKNOWN

§ Identity

Operator
Country
US
Launch date
2024-08-16
Launch site
AFWTR
Launch vehicle
Mass (kg)
RCS (m²)

Purposes: earth_obs

External: N2YO · Heavens-Above · Gunter

§ Orbital elements

Epoch: 2026-09-19T05:22:51.830400Z

Period
93.19 min
Inclination
97.3669°
Eccentricity
0.0002473
Mean motion
15.45206736 rev/d
Perigee alt
429.1 km
Apogee alt
432.5 km
Semi-major
6,808.9 km
B*
5.9726e-4
RAAN
347.1090°
Arg perigee
262.7746°
Mean anomaly
97.3222°
Rev number
11,681

§ Raw data

FLOCK 4BE-181 60480U 24149N   26262.22421100  .00028334  00000+0  59726-3 0  99992 60480  97.3669 347.1090 0002473 262.7746  97.3222 15.45206736116815

JSON: /api/v1/satellites/60480 · /tle

For live sub-satellite position, see the globe view (requires WebGL).

§ Visibility from observer

Set your observer location to see the next 7 days of passes ≥ 10°. The values pass through the URL so the page stays shareable.

No JS? Fill the form by hand. The geolocation button needs JavaScript.